This demonstration page uses our WeatherBlox Daily Observations layout. Learn more.

Left ArrowRight Arrow

39.92423, -83.80882

Hourly Observations for February 11, 2020

Temp ( °F °C ) Dew Point ( °F °C ) Humidity (%) Winds ( mph kmh ) Pressure ( in mb ) Visibility ( mi km ) Precip ( " mm )
12:46 am 00:46 Cloudy with Mist and Fog 36 2 36 2 100 100 N 7 11 30.09 1019 3 5 N/A
12:56 am 00:56 Cloudy with Mist and Fog 35 1.7 35 1.7 100 100 N 7 11 30.08 1019 3 5 N/A
1:19 am 01:19 Cloudy with Mist and Fog 36 2 36 2 100 100 NNW 5 7 30.11 1019 4 6 N/A
1:56 am 01:56 Cloudy with Mist and Fog 34 1.1 34 1.1 100 100 NW 6 9 30.09 1019 4 6 N/A
2:36 am 02:36 Cloudy with Mist and Fog 34 1 34 1 100 100 WNW 3 6 30.12 1020 3 5 N/A
2:53 am 02:53 Cloudy with Mist and Fog 34 1 34 1 100 100 NW 7 11 30.12 1020 3 5 N/A
2:56 am 02:56 Cloudy with Mist and Fog 34 1.1 34 1.1 100 100 NW 7 11 30.10 1019 3 5 N/A
3:07 am 03:07 Cloudy with Mist and Fog 34 1 34 1 100 100 NW 6 9 30.12 1020 3 5 N/A
3:56 am 03:56 Cloudy with Mist and Fog 33 0.6 33 0.6 100 100 NNW 8 13 30.09 1019 3 5 N/A
4:56 am 04:56 Cloudy with Mist and Fog 33 0.6 33 0.6 100 100 N 7 11 30.08 1019 4 6 N/A
5:48 am 05:48 Cloudy with Mist and Fog 34 1 34 1 100 100 N 5 7 30.12 1020 5 8 N/A
5:56 am 05:56 Cloudy with Mist and Fog 33 0.6 33 0.6 100 100 N 5 7 30.10 1019 4 6 N/A
6:22 am 06:22 Cloudy with Mist and Fog 34 1 34 1 100 100 N 6 9 30.12 1020 5 8 N/A
6:56 am 06:56 Cloudy with Light Rain 33 0.6 33 0.6 100 100 N 5 7 30.11 1020 5 8 0.00 0.00
7:09 am 07:09 Cloudy with Light Snow 34 1 34 1 100 100 N 6 9 30.13 1020 3 5 0.00 0.00
7:16 am 07:16 Cloudy with Light Snow 34 1 34 1 100 100 N 6 9 30.12 1020 2 3 0.00 0.00
7:26 am 07:26 Cloudy with Light Snow 34 1 34 1 100 100 N 6 9 30.12 1020 2 2 0.00 0.00
7:53 am 07:53 Cloudy with Light Wintry Mix 34 1 34 1 100 100 N 7 11 30.11 1020 2 3 0.00 0.00
7:56 am 07:56 Cloudy with Light Snow 33 0.6 33 0.6 100 100 N 5 7 30.09 1019 3 4 0.00 0.00
8:33 am 08:33 Cloudy with Mist and Fog 34 1 34 1 100 100 N 6 9 30.12 1020 3 5 0.00 0.00
8:46 am 08:46 Cloudy with Mist and Fog 34 1 34 1 100 100 NNE 5 7 30.11 1020 3 5 0.00 0.00
8:54 am 08:54 Cloudy with Mist and Fog 34 1 34 1 100 100 N 7 11 30.11 1020 3 5 0.00 0.00
8:56 am 08:56 Cloudy with Mist and Fog 34 1.1 33 0.6 97 97 N 7 11 30.10 1019 4 6 0.00 0.00
9:56 am 09:56 Cloudy with Mist and Fog 35 1.7 33 0.6 93 93 ENE 5 7 30.08 1019 5 8 N/A
10:07 am 10:07 Cloudy with Mist and Fog 36 2 34 1 93 93 ENE 3 6 30.08 1019 5 8 N/A
10:27 am 10:27 Cloudy 36 2 32 undefined 87 87 N N/A 30.11 1019 7 11 N/A
10:56 am 10:56 Cloudy with Mist and Fog 36 2.2 33 0.6 89 89 NW 6 9 30.10 1019 6 10 N/A
11:44 am 11:44 Cloudy with Mist and Fog 36 2 34 1 93 93 WNW 8 13 30.12 1020 6 10 N/A
11:56 am 11:56 Cloudy with Mist and Fog 36 2.2 34 1.1 93 93 WNW 10 17 30.10 1019 5 8 N/A
12:56 pm 12:56 Cloudy 37 2.8 32 undefined 82 82 NW 7 11 30.08 1019 9 14 N/A
1:56 pm 13:56 Cloudy 37 2.8 32 undefined 82 82 WNW 13 20 30.07 1018 9 14 N/A
2:11 pm 14:11 Cloudy 37 3 32 undefined 81 81 NW 12 19 30.08 1019 8 13 N/A
2:56 pm 14:56 Cloudy 38 3.3 32 undefined 79 79 WNW 10 17 30.08 1019 8 13 N/A
3:56 pm 15:56 Cloudy 38 3.3 31 -0.6 76 76 W 14 22 30.09 1019 10 16 N/A
4:56 pm 16:56 Cloudy 38 3.3 29 -1.7 70 70 W 13 20 30.11 1020 10 16 N/A
5:56 pm 17:56 Mostly Cloudy 36 2.2 29 -1.7 76 76 WNW 10 17 30.12 1020 10 16 N/A
6:56 pm 18:56 Partly Cloudy 35 1.7 29 -1.7 78 78 W 13 20 30.14 1021 10 16 N/A
7:34 pm 19:34 Mostly Cloudy 36 2 30 -1 81 81 W 12 19 30.19 1022 10 16 N/A
7:56 pm 19:56 Mostly Cloudy 35 1.7 30 -1.1 82 82 W 12 19 30.18 1022 10 16 N/A
8:05 pm 20:05 Mostly Cloudy 36 2 30 -1 81 81 W 13 20 30.21 1023 10 16 N/A
8:56 pm 20:56 Mostly Clear 34 1.1 30 -1.1 85 85 W 13 20 30.20 1023 10 16 N/A
9:56 pm 21:56 Clear 33 0.6 28 -2.2 82 82 WNW 8 13 30.20 1023 10 16 N/A
10:56 pm 22:56 Clear 32 undefined 28 -2.2 85 85 W 7 11 30.21 1023 10 16 N/A
11:56 pm 23:56 Clear 32 undefined 29 -1.7 88 88 W 6 9 30.22 1023 10 16 N/A

Powered by AerisWeather